Time,TemperatureF,DewpointF,PressureIn,WindDirection,WindDirectionDegrees,WindSpeedMPH,WindSpeedGustMPH,Humidity,HourlyPrecipIn,Conditions,Clouds,dailyrainin,SoftwareType,DateUTC
2013-05-04 00:00:00,60.4,60.4,29.89,ESE,116,6.6,8.5,100,0.00,,BKN250,0.00,VWS V14.01,2013-05-04 04:00:00,
2013-05-04 00:01:00,60.4,60.4,29.89,ESE,116,4.4,8.5,100,0.00,,BKN250,0.00,VWS V14.01,2013-05-04 04:01:00,
2013-05-04 00:02:00,60.4,60.4,29.89,SE,126,5.9,7.5,100,0.00,,BKN250,0.00,VWS V14.01,2013-05-04 04:02:00,
2013-05-04 00:04:00,60.4,60.4,29.89,SE,126,0.0,4.7,100,0.00,,BKN250,0.00,VWS V14.01,2013-05-04 04:04:00,
2013-05-04 00:09:00,60.4,60.4,29.92,ESE,118,4.4,5.6,100,0.00,,BKN250,0.00,VWS V14.01,2013-05-04 04:09:00,
2013-05-04 00:14:00,60.6,60.6,29.92,ESE,114,3.7,4.7,100,0.00,,BKN250,0.00,VWS V14.01,2013-05-04 04:14:00,
2013-05-04 00:19:00,60.6,60.6,29.92,ESE,111,5.9,7.5,100,0.00,,BKN250,0.00,VWS V14.01,2013-05-04 04:19:00,
2013-05-04 00:24:00,60.6,60.6,29.92,ESE,116,5.2,7.5,100,0.00,,BKN250,0.00,VWS V14.01,2013-05-04 04:24:00,
2013-05-04 00:29:00,60.8,60.8,29.92,SE,131,5.2,6.6,100,0.00,,BKN250,0.00,VWS V14.01,2013-05-04 04:29:00,
2013-05-04 00:34:00,60.8,60.8,29.92,SE,144,4.4,6.6,100,0.00,,BKN250,0.00,VWS V14.01,2013-05-04 04:34:00,
2013-05-04 00:39:00,60.8,60.8,29.92,ESE,120,4.4,5.6,100,0.00,,BKN250,0.00,VWS V14.01,2013-05-04 04:39:00,
2013-05-04 00:44:00,60.8,60.8,29.92,SSE,152,5.9,8.5,100,0.00,,OVC140,0.00,VWS V14.01,2013-05-04 04:44:00,
2013-05-04 00:49:00,60.8,60.8,29.92,SE,133,3.7,6.6,100,0.00,,OVC140,0.00,VWS V14.01,2013-05-04 04:49:00,
2013-05-04 00:54:00,60.8,60.8,29.92,SE,133,0.0,0.0,100,0.00,,OVC140,0.00,VWS V14.01,2013-05-04 04:54:00,
2013-05-04 00:59:00,60.8,60.8,29.92,SE,124,6.6,8.5,100,0.00,,OVC140,0.00,VWS V14.01,2013-05-04 04:59:00,
2013-05-04 01:04:00,60.8,60.8,29.92,SE,124,0.0,0.0,100,0.00,,OVC140,0.00,VWS V14.01,2013-05-04 05:04:00,
2013-05-04 01:09:00,60.8,60.8,29.92,ESE,106,0.0,0.0,100,0.00,,OVC140,0.00,VWS V14.01,2013-05-04 05:09:00,
2013-05-04 01:14:00,61.0,61.0,29.92,SE,124,4.4,8.5,100,0.00,,OVC140,0.00,VWS V14.01,2013-05-04 05:14:00,
2013-05-04 01:19:00,61.0,61.0,29.92,ESE,111,5.9,8.5,100,0.00,,OVC140,0.00,VWS V14.01,2013-05-04 05:19:00,
2013-05-04 01:24:00,61.0,61.0,29.92,ESE,107,5.2,7.5,100,0.00,,OVC140,0.00,VWS V14.01,2013-05-04 05:24:00,
2013-05-04 01:30:00,61.0,61.0,29.92,ESE,119,6.6,8.5,100,0.00,,OVC140,0.00,VWS V14.01,2013-05-04 05:30:00,
2013-05-04 01:35:00,61.0,61.0,29.92,SE,133,5.9,7.5,100,0.00,,OVC140,0.00,VWS V14.01,2013-05-04 05:35:00,
2013-05-04 01:40:00,61.2,61.2,29.92,SE,124,5.9,8.5,100,0.00,,OVC140,0.00,VWS V14.01,2013-05-04 05:40:00,
2013-05-04 01:45:00,61.2,61.2,29.92,SE,124,3.7,4.7,100,0.00,,OVC150,0.00,VWS V14.01,2013-05-04 05:45:00,
2013-05-04 01:50:00,61.2,61.2,29.92,SSE,151,0.0,6.6,100,0.00,,OVC150,0.00,VWS V14.01,2013-05-04 05:50:00,
2013-05-04 01:55:00,61.2,61.2,29.92,SE,136,5.2,7.5,100,0.00,,OVC150,0.00,VWS V14.01,2013-05-04 05:55:00,
2013-05-04 02:00:00,61.2,61.2,29.92,SE,130,6.6,8.5,100,0.00,,OVC150,0.00,VWS V14.01,2013-05-04 06:00:00,
2013-05-04 02:05:00,61.2,61.2,29.92,SE,130,0.0,5.6,100,0.00,,OVC150,0.00,VWS V14.01,2013-05-04 06:05:00,
2013-05-04 02:10:00,61.2,61.2,29.89,ESE,122,0.0,0.0,100,0.00,,OVC150,0.00,VWS V14.01,2013-05-04 06:10:00,
2013-05-04 02:15:00,61.2,61.2,29.89,East,99,0.0,0.0,100,0.00,,OVC150,0.00,VWS V14.01,2013-05-04 06:15:00,
2013-05-04 02:20:00,61.0,61.0,29.89,SE,128,0.0,0.0,100,0.00,,OVC150,0.00,VWS V14.01,2013-05-04 06:20:00,
2013-05-04 02:25:00,61.0,61.0,29.89,SSE,152,0.0,0.0,100,0.00,,OVC150,0.00,VWS V14.01,2013-05-04 06:25:00,
2013-05-04 02:30:00,61.0,61.0,29.89,ESE,117,0.0,0.0,100,0.00,,OVC150,0.00,VWS V14.01,2013-05-04 06:30:00,
2013-05-04 02:35:00,61.0,61.0,29.89,SE,140,0.0,6.6,100,0.00,,OVC150,0.00,VWS V14.01,2013-05-04 06:35:00,
2013-05-04 02:40:00,61.0,61.0,29.89,SE,130,5.2,6.6,100,0.00,,OVC130,0.00,VWS V14.01,2013-05-04 06:40:00,
2013-05-04 02:45:00,61.0,61.0,29.89,East,101,4.4,6.6,100,0.00,,OVC130,0.00,VWS V14.01,2013-05-04 06:45:00,
2013-05-04 02:50:00,61.0,61.0,29.89,ESE,110,3.7,7.5,100,0.00,,OVC130,0.00,VWS V14.01,2013-05-04 06:50:00,
2013-05-04 02:55:00,61.0,61.0,29.89,East,94,0.0,6.6,100,0.00,,OVC130,0.00,VWS V14.01,2013-05-04 06:55:00,
2013-05-04 03:00:00,61.0,61.0,29.89,ESE,112,0.0,6.6,100,0.00,,OVC130,0.00,VWS V14.01,2013-05-04 07:00:00,
2013-05-04 03:05:00,61.0,61.0,29.89,SE,132,0.0,0.0,100,0.00,,OVC130,0.00,VWS V14.01,2013-05-04 07:05:00,
2013-05-04 03:11:00,60.8,60.8,29.89,ESE,114,0.0,6.6,100,0.00,,OVC130,0.00,VWS V14.01,2013-05-04 07:11:00,
2013-05-04 03:16:00,60.8,60.8,29.89,ESE,112,5.2,7.5,100,0.00,,OVC130,0.00,VWS V14.01,2013-05-04 07:16:00,
2013-05-04 03:21:00,60.8,60.8,29.89,SE,125,0.0,0.0,100,0.00,,OVC130,0.00,VWS V14.01,2013-05-04 07:21:00,
2013-05-04 03:26:00,61.0,61.0,29.89,ENE,73,3.7,4.7,100,0.00,,OVC130,0.00,VWS V14.01,2013-05-04 07:26:00,
2013-05-04 03:31:00,61.0,61.0,29.89,East,91,5.2,6.6,100,0.00,,OVC130,0.00,VWS V14.01,2013-05-04 07:31:00,
2013-05-04 03:36:00,61.0,61.0,29.89,ESE,112,0.0,5.6,100,0.00,,OVC130,0.00,VWS V14.01,2013-05-04 07:36:00,
2013-05-04 03:41:00,60.8,60.8,29.89,East,94,0.0,4.7,100,0.00,,OVC140,0.00,VWS V14.01,2013-05-04 07:41:00,
2013-05-04 03:46:00,60.8,60.8,29.89,SE,124,0.0,0.0,100,0.00,,OVC140,0.00,VWS V14.01,2013-05-04 07:46:00,
2013-05-04 03:51:00,60.6,60.6,29.89,ESE,121,5.2,7.5,100,0.00,,OVC140,0.00,VWS V14.01,2013-05-04 07:51:00,
2013-05-04 03:56:00,60.6,60.6,29.89,ESE,122,5.9,7.5,100,0.00,,OVC140,0.00,VWS V14.01,2013-05-04 07:56:00,
2013-05-04 04:01:00,60.6,60.6,29.89,ESE,112,5.2,10.3,100,0.00,,OVC140,0.00,VWS V14.01,2013-05-04 08:01:00,
2013-05-04 04:06:00,60.6,60.6,29.89,South,173,0.0,7.5,100,0.00,,OVC140,0.00,VWS V14.01,2013-05-04 08:06:00,
2013-05-04 04:11:00,60.4,60.4,29.89,ESE,106,8.9,11.3,100,0.00,,OVC140,0.00,VWS V14.01,2013-05-04 08:11:00,
2013-05-04 04:16:00,60.6,60.6,29.89,East,96,5.9,11.3,100,0.00,,OVC140,0.00,VWS V14.01,2013-05-04 08:16:00,
2013-05-04 04:21:00,60.6,60.6,29.89,SE,132,8.1,10.3,100,0.00,,OVC140,0.00,VWS V14.01,2013-05-04 08:21:00,
2013-05-04 04:26:00,60.6,60.6,29.89,SE,138,5.2,13.2,100,0.00,,OVC140,0.00,VWS V14.01,2013-05-04 08:26:00,
2013-05-04 04:31:00,60.6,59.7,29.89,ESE,123,6.6,13.2,97,0.00,,OVC140,0.00,VWS V14.01,2013-05-04 08:31:00,
2013-05-04 04:36:00,60.6,59.2,29.89,ESE,106,8.9,11.3,95,0.00,,OVC140,0.00,VWS V14.01,2013-05-04 08:36:00,
2013-05-04 04:41:00,60.8,57.9,29.89,ESE,117,8.1,13.2,90,0.00,,OVC140,0.00,VWS V14.01,2013-05-04 08:41:00,
2013-05-04 04:46:00,60.8,57.3,29.89,SE,138,5.2,13.2,88,0.00,,OVC140,0.00,VWS V14.01,2013-05-04 08:46:00,
2013-05-04 04:52:00,60.6,56.1,29.89,ESE,120,8.9,11.3,85,0.00,,BKN170,0.00,VWS V14.01,2013-05-04 08:52:00,
2013-05-04 04:57:00,60.6,55.5,29.89,ESE,111,6.6,8.5,83,0.00,,BKN170,0.00,VWS V14.01,2013-05-04 08:57:00,
2013-05-04 05:02:00,60.6,55.0,29.89,South,177,5.2,6.6,82,0.00,,BKN170,0.00,VWS V14.01,2013-05-04 09:02:00,
2013-05-04 05:07:00,60.6,54.4,29.89,ESE,118,8.9,11.3,80,0.00,,BKN170,0.00,VWS V14.01,2013-05-04 09:07:00,
2013-05-04 05:12:00,60.4,53.6,29.89,ENE,67,4.4,5.6,78,0.00,,BKN170,0.00,VWS V14.01,2013-05-04 09:12:00,
2013-05-04 05:17:00,60.6,53.2,29.89,ESE,115,4.4,14.1,76,0.00,,BKN170,0.00,VWS V14.01,2013-05-04 09:17:00,
2013-05-04 05:22:00,60.6,53.2,29.89,East,89,5.2,13.2,76,0.00,,BKN170,0.00,VWS V14.01,2013-05-04 09:22:00,
2013-05-04 05:27:00,60.4,53.0,29.89,East,96,8.9,11.3,76,0.00,,BKN170,0.00,VWS V14.01,2013-05-04 09:27:00,
2013-05-04 05:32:00,60.4,53.0,29.89,ESE,116,11.8,15.0,76,0.00,,BKN170,0.00,VWS V14.01,2013-05-04 09:32:00,
2013-05-04 05:37:00,60.4,53.0,29.89,SE,144,11.8,15.0,76,0.00,,BKN170,0.00,VWS V14.01,2013-05-04 09:37:00,
2013-05-04 05:42:00,60.3,52.8,29.89,ESE,119,5.9,11.3,76,0.00,,BKN160,0.00,VWS V14.01,2013-05-04 09:42:00,
2013-05-04 05:47:00,60.3,52.2,29.89,ESE,120,6.6,16.0,75,0.00,,BKN160,0.00,VWS V14.01,2013-05-04 09:47:00,
2013-05-04 05:52:00,60.3,52.2,29.89,ESE,123,5.9,7.5,75,0.00,,BKN160,0.00,VWS V14.01,2013-05-04 09:52:00,
2013-05-04 05:57:00,60.3,52.2,29.89,East,99,5.9,8.5,75,0.00,,BKN160,0.00,VWS V14.01,2013-05-04 09:57:00,
2013-05-04 06:02:00,60.3,52.2,29.89,SE,139,8.9,11.3,75,0.00,,BKN160,0.00,VWS V14.01,2013-05-04 10:02:00,
2013-05-04 06:07:00,60.4,52.4,29.89,East,82,5.9,11.3,75,0.00,,BKN160,0.00,VWS V14.01,2013-05-04 10:07:00,
2013-05-04 06:12:00,60.4,51.8,29.86,SSE,161,0.0,11.3,73,0.00,,BKN160,0.00,VWS V14.01,2013-05-04 10:12:00,
2013-05-04 06:17:00,60.4,51.8,29.86,East,90,8.9,12.2,73,0.00,,BKN160,0.00,VWS V14.01,2013-05-04 10:17:00,
2013-05-04 06:22:00,60.4,51.8,29.86,ESE,116,4.4,12.2,73,0.00,,BKN160,0.00,VWS V14.01,2013-05-04 10:22:00,
2013-05-04 06:28:00,60.4,51.2,29.89,East,85,6.6,11.3,71,0.00,,BKN160,0.00,VWS V14.01,2013-05-04 10:28:00,
2013-05-04 06:33:00,60.4,51.2,29.89,East,88,8.9,11.3,71,0.00,,BKN160,0.00,VWS V14.01,2013-05-04 10:33:00,
2013-05-04 06:38:00,60.6,51.3,29.89,SE,127,10.3,13.2,71,0.00,,BKN170,0.00,VWS V14.01,2013-05-04 10:38:00,
2013-05-04 06:43:00,60.4,51.2,29.89,ESE,112,5.9,8.5,71,0.00,,BKN170,0.00,VWS V14.01,2013-05-04 10:43:00,
2013-05-04 06:48:00,60.4,51.2,29.89,SSE,150,8.1,13.2,71,0.00,,BKN170,0.00,VWS V14.01,2013-05-04 10:48:00,
2013-05-04 06:53:00,60.3,51.0,29.89,ESE,118,4.4,6.6,71,0.00,,BKN170,0.00,VWS V14.01,2013-05-04 10:53:00,
2013-05-04 06:58:00,60.3,51.6,29.89,SSE,148,4.4,8.5,73,0.00,,BKN170,0.00,VWS V14.01,2013-05-04 10:58:00,
2013-05-04 07:03:00,60.1,51.5,29.89,SE,130,5.9,7.5,73,0.00,,BKN170,0.00,VWS V14.01,2013-05-04 11:03:00,
2013-05-04 07:08:00,60.1,51.5,29.89,NE,55,5.9,7.5,73,0.00,,BKN170,0.00,VWS V14.01,2013-05-04 11:08:00,
2013-05-04 07:13:00,60.1,51.5,29.89,ESE,104,5.2,10.3,73,0.00,,BKN170,0.00,VWS V14.01,2013-05-04 11:13:00,
2013-05-04 07:18:00,60.3,51.6,29.89,ESE,120,5.2,7.5,73,0.00,,BKN170,0.00,VWS V14.01,2013-05-04 11:18:00,
2013-05-04 07:23:00,60.1,51.5,29.89,East,97,3.7,8.5,73,0.00,,BKN170,0.00,VWS V14.01,2013-05-04 11:23:00,
2013-05-04 07:28:00,60.3,51.6,29.89,ESE,122,5.9,11.3,73,0.00,,BKN170,0.00,VWS V14.01,2013-05-04 11:28:00,
2013-05-04 07:33:00,60.4,51.2,29.89,East,88,8.9,11.3,71,0.00,,BKN170,0.00,VWS V14.01,2013-05-04 11:33:00,
2013-05-04 07:38:00,60.4,51.2,29.89,East,97,8.9,11.3,71,0.00,,BKN160,0.00,VWS V14.01,2013-05-04 11:38:00,
2013-05-04 07:43:00,60.6,51.3,29.89,ESE,108,11.1,14.1,71,0.00,,BKN160,0.00,VWS V14.01,2013-05-04 11:43:00,
2013-05-04 07:49:00,60.8,50.8,29.89,SE,128,3.7,13.2,70,0.00,,BKN160,0.00,VWS V14.01,2013-05-04 11:49:00,
2013-05-04 07:54:00,60.8,50.8,29.89,East,92,9.6,12.2,70,0.00,,BKN160,0.00,VWS V14.01,2013-05-04 11:54:00,
2013-05-04 07:59:00,61.0,51.0,29.89,ESE,112,16.6,21.1,70,0.00,,BKN160,0.00,VWS V14.01,2013-05-04 11:59:00,
2013-05-04 08:04:00,61.0,50.4,29.89,East,95,5.2,8.5,68,0.00,,BKN160,0.00,VWS V14.01,2013-05-04 12:04:00,
2013-05-04 08:10:00,61.0,50.4,29.89,ESE,117,8.9,14.1,68,0.00,,BKN160,0.00,VWS V14.01,2013-05-04 12:10:00,
2013-05-04 08:15:00,61.0,50.4,29.89,SE,139,5.9,12.2,68,0.00,,BKN160,0.00,VWS V14.01,2013-05-04 12:15:00,
2013-05-04 08:20:00,61.2,49.8,29.89,ESE,111,5.2,13.2,66,0.00,,BKN160,0.00,VWS V14.01,2013-05-04 12:20:00,
2013-05-04 08:25:00,61.0,49.7,29.89,SE,125,8.1,10.3,66,0.00,,BKN160,0.00,VWS V14.01,2013-05-04 12:25:00,
2013-05-04 08:30:00,61.0,50.4,29.89,ESE,118,11.1,14.1,68,0.00,,BKN160,0.00,VWS V14.01,2013-05-04 12:30:00,
2013-05-04 08:35:00,61.0,49.7,29.89,ENE,78,6.6,16.9,66,0.00,,BKN160,0.00,VWS V14.01,2013-05-04 12:35:00,
2013-05-04 08:41:00,61.0,50.4,29.92,East,96,4.4,7.5,68,0.00,,BKN160,0.00,VWS V14.01,2013-05-04 12:41:00,
2013-05-04 08:46:00,60.8,50.2,29.92,ESE,118,5.2,8.5,68,0.00,,BKN160,0.00,VWS V14.01,2013-05-04 12:46:00,
2013-05-04 08:51:00,60.8,50.2,29.92,SE,129,10.3,18.3,68,0.00,,BKN160,0.00,VWS V14.01,2013-05-04 12:51:00,
2013-05-04 08:56:00,61.0,50.4,29.92,SSE,147,8.1,17.4,68,0.00,,OVC150,0.00,VWS V14.01,2013-05-04 12:56:00,
2013-05-04 09:01:00,61.0,50.4,29.92,East,97,5.9,19.3,68,0.00,,OVC150,0.00,VWS V14.01,2013-05-04 13:01:00,
2013-05-04 09:04:00,61.0,50.4,29.92,ESE,106,0.0,8.5,68,0.00,,OVC150,0.00,VWS V14.01,2013-05-04 13:04:00,
2013-05-04 09:09:00,61.0,51.0,29.92,SE,141,8.1,10.3,70,0.00,,OVC150,0.00,VWS V14.01,2013-05-04 13:09:00,
2013-05-04 09:14:00,61.0,51.0,29.92,ESE,119,9.6,12.2,70,0.00,,OVC150,0.00,VWS V14.01,2013-05-04 13:14:00,
2013-05-04 09:19:00,61.0,51.0,29.92,ESE,108,5.2,6.6,70,0.00,,OVC150,0.00,VWS V14.01,2013-05-04 13:19:00,
2013-05-04 09:24:00,61.0,51.0,29.92,SSE,155,8.9,12.2,70,0.00,,OVC150,0.00,VWS V14.01,2013-05-04 13:24:00,
2013-05-04 09:29:00,61.0,51.0,29.92,East,91,4.4,8.5,70,0.00,,OVC150,0.00,VWS V14.01,2013-05-04 13:29:00,
2013-05-04 09:34:00,61.0,51.0,29.92,ESE,108,8.1,16.9,70,0.00,,OVC150,0.00,VWS V14.01,2013-05-04 13:34:00,
2013-05-04 09:39:00,61.0,51.7,29.92,ENE,65,8.9,11.3,71,0.00,,OVC140,0.00,VWS V14.01,2013-05-04 13:39:00,
2013-05-04 09:44:00,61.2,51.2,29.92,ENE,61,10.3,13.2,70,0.00,,OVC140,0.00,VWS V14.01,2013-05-04 13:44:00,
2013-05-04 09:49:00,61.0,51.0,29.92,ESE,118,5.2,6.6,70,0.00,,OVC140,0.00,VWS V14.01,2013-05-04 13:49:00,
2013-05-04 09:54:00,61.0,51.0,29.92,ESE,115,5.2,12.2,70,0.00,,OVC140,0.00,VWS V14.01,2013-05-04 13:54:00,
2013-05-04 09:59:00,61.0,51.0,29.92,East,85,5.2,16.9,70,0.00,,OVC140,0.00,VWS V14.01,2013-05-04 13:59:00,
2013-05-04 10:05:00,60.8,51.5,29.92,ESE,106,16.6,21.1,71,0.00,,OVC140,0.00,VWS V14.01,2013-05-04 14:05:00,
2013-05-04 10:10:00,60.3,52.2,29.92,SE,124,13.3,16.9,75,0.00,,OVC140,0.00,VWS V14.01,2013-05-04 14:10:00,
2013-05-04 10:15:00,59.4,52.0,29.92,SE,125,6.6,8.5,76,0.00,,OVC140,0.00,VWS V14.01,2013-05-04 14:15:00,
2013-05-04 10:20:00,59.0,52.8,29.92,ENE,64,5.9,12.2,80,0.00,,OVC140,0.00,VWS V14.01,2013-05-04 14:20:00,
2013-05-04 10:25:00,58.6,53.0,29.92,East,95,9.6,12.2,82,0.00,,OVC140,0.00,VWS V14.01,2013-05-04 14:25:00,
2013-05-04 10:30:00,58.5,54.0,29.92,SE,137,8.1,16.0,85,0.00,,OVC140,0.00,VWS V14.01,2013-05-04 14:30:00,
2013-05-04 10:35:00,57.9,55.0,29.92,SSE,167,5.2,12.2,90,0.04,,OVC140,0.04,VWS V14.01,2013-05-04 14:35:00,
2013-05-04 10:40:00,57.4,55.0,29.92,ESE,122,5.9,7.5,92,0.04,,OVC070,0.04,VWS V14.01,2013-05-04 14:40:00,
2013-05-04 10:45:00,57.2,55.8,29.92,NE,48,13.3,16.9,95,0.04,,OVC070,0.04,VWS V14.01,2013-05-04 14:45:00,
2013-05-04 10:50:00,57.0,56.6,29.92,ESE,108,4.4,8.5,99,0.04,,OVC070,0.04,VWS V14.01,2013-05-04 14:50:00,
2013-05-04 10:55:00,57.2,57.2,29.92,ESE,103,0.0,5.6,100,0.04,,OVC070,0.04,VWS V14.01,2013-05-04 14:55:00,
2013-05-04 11:00:00,57.6,57.6,29.92,SSW,192,3.7,6.6,100,0.04,,OVC070,0.04,VWS V14.01,2013-05-04 15:00:00,
2013-05-04 11:05:00,58.1,58.1,29.92,East,91,8.1,10.3,100,0.04,,OVC070,0.04,VWS V14.01,2013-05-04 15:05:00,
2013-05-04 11:10:00,58.5,58.5,29.92,East,84,5.2,10.3,100,0.04,,OVC070,0.04,VWS V14.01,2013-05-04 15:10:00,
2013-05-04 11:15:00,59.0,59.0,29.92,SE,136,10.3,13.2,100,0.04,,OVC070,0.04,VWS V14.01,2013-05-04 15:15:00,
2013-05-04 11:20:00,59.4,59.4,29.92,SE,124,4.4,16.0,100,0.04,,OVC070,0.04,VWS V14.01,2013-05-04 15:20:00,
2013-05-04 11:26:00,59.7,59.3,29.92,East,90,4.4,5.6,99,0.04,,OVC070,0.04,VWS V14.01,2013-05-04 15:26:00,
2013-05-04 11:31:00,60.1,59.2,29.92,ESE,109,5.9,11.3,97,0.04,,OVC070,0.04,VWS V14.01,2013-05-04 15:31:00,
2013-05-04 11:36:00,59.9,58.5,29.92,South,189,5.2,8.5,95,0.00,,OVC090,0.04,VWS V14.01,2013-05-04 15:36:00,
2013-05-04 11:41:00,59.5,57.7,29.95,ESE,106,8.9,20.2,94,0.00,,OVC090,0.04,VWS V14.01,2013-05-04 15:41:00,
2013-05-04 11:46:00,59.2,56.8,29.95,SSE,152,0.0,8.5,92,0.00,,OVC090,0.04,VWS V14.01,2013-05-04 15:46:00,
2013-05-04 11:51:00,58.6,56.8,29.95,South,187,3.7,4.7,94,0.00,,OVC090,0.04,VWS V14.01,2013-05-04 15:51:00,
2013-05-04 11:56:00,58.3,57.4,29.95,East,91,5.9,7.5,97,0.00,,OVC090,0.04,VWS V14.01,2013-05-04 15:56:00,
2013-05-04 12:01:00,58.1,57.7,29.95,ESE,111,0.0,0.0,99,0.00,,OVC090,0.04,VWS V14.01,2013-05-04 16:01:00,
2013-05-04 12:06:00,58.1,58.1,29.95,South,190,0.0,0.0,100,0.04,,OVC090,0.08,VWS V14.01,2013-05-04 16:06:00,
2013-05-04 12:11:00,57.9,57.9,29.95,ESE,104,0.0,4.7,100,0.04,,OVC090,0.08,VWS V14.01,2013-05-04 16:11:00,
2013-05-04 12:16:00,57.7,57.7,29.95,ESE,113,6.6,11.3,100,0.04,,OVC090,0.08,VWS V14.01,2013-05-04 16:16:00,
2013-05-04 12:21:00,57.6,57.6,29.95,ESE,116,8.9,13.2,100,0.04,,OVC090,0.08,VWS V14.01,2013-05-04 16:21:00,
2013-05-04 12:26:00,57.4,57.4,29.95,ESE,111,5.2,6.6,100,0.04,,OVC090,0.08,VWS V14.01,2013-05-04 16:26:00,
2013-05-04 12:31:00,57.4,57.4,29.95,ESE,115,8.1,12.2,100,0.04,,OVC090,0.08,VWS V14.01,2013-05-04 16:31:00,
2013-05-04 12:36:00,57.2,57.2,29.95,South,177,6.6,8.5,100,0.04,,OVC150,0.08,VWS V14.01,2013-05-04 16:36:00,
2013-05-04 12:41:00,57.2,57.2,29.95,SSE,155,5.2,10.3,100,0.04,,OVC150,0.08,VWS V14.01,2013-05-04 16:41:00,
2013-05-04 12:46:00,57.0,57.0,29.95,East,101,4.4,6.6,100,0.04,,OVC150,0.08,VWS V14.01,2013-05-04 16:46:00,
2013-05-04 12:51:00,56.8,56.8,29.95,East,89,4.4,11.3,100,0.04,,OVC150,0.08,VWS V14.01,2013-05-04 16:51:00,
2013-05-04 12:57:00,56.7,56.7,29.95,SE,144,7.4,9.4,100,0.08,,OVC150,0.12,VWS V14.01,2013-05-04 16:57:00,
2013-05-04 13:02:00,56.3,56.3,29.95,SE,131,5.2,6.6,100,0.08,,OVC150,0.12,VWS V14.01,2013-05-04 17:02:00,
2013-05-04 13:07:00,56.1,56.1,29.95,ESE,105,5.9,14.1,100,0.04,,OVC150,0.12,VWS V14.01,2013-05-04 17:07:00,
2013-05-04 13:12:00,55.9,55.9,29.95,SSE,165,10.3,13.2,100,0.04,,OVC150,0.12,VWS V14.01,2013-05-04 17:12:00,
2013-05-04 13:17:00,55.8,55.8,29.95,SSW,202,4.4,5.6,100,0.08,,OVC150,0.16,VWS V14.01,2013-05-04 17:17:00,
2013-05-04 13:22:00,55.6,55.6,29.95,SSW,205,6.6,8.5,100,0.08,,OVC150,0.16,VWS V14.01,2013-05-04 17:22:00,
2013-05-04 13:27:00,55.2,55.2,29.95,SSE,155,5.9,12.2,100,0.12,,OVC150,0.20,VWS V14.01,2013-05-04 17:27:00,
2013-05-04 13:32:00,55.0,55.0,29.95,ESE,117,7.4,10.3,100,0.12,,OVC150,0.20,VWS V14.01,2013-05-04 17:32:00,
2013-05-04 13:37:00,54.5,54.5,29.95,ESE,113,5.2,8.5,100,0.16,,BKN190,0.24,VWS V14.01,2013-05-04 17:37:00,
2013-05-04 13:42:00,54.3,54.3,29.95,SE,140,0.0,0.0,100,0.16,,BKN190,0.24,VWS V14.01,2013-05-04 17:42:00,
2013-05-04 13:47:00,54.3,54.3,29.95,ESE,111,0.0,0.0,100,0.20,,BKN190,0.28,VWS V14.01,2013-05-04 17:47:00,
2013-05-04 13:52:00,54.5,54.5,29.95,ENE,75,5.2,7.5,100,0.20,,BKN190,0.28,VWS V14.01,2013-05-04 17:52:00,
2013-05-04 13:57:00,54.3,54.3,29.98,SE,133,0.0,11.3,100,0.16,,BKN190,0.28,VWS V14.01,2013-05-04 17:57:00,
2013-05-04 14:02:00,54.5,54.5,29.98,ESE,110,5.9,7.5,100,0.16,,BKN190,0.28,VWS V14.01,2013-05-04 18:02:00,
2013-05-04 14:07:00,54.5,54.5,29.98,SE,143,3.7,5.6,100,0.16,,BKN190,0.28,VWS V14.01,2013-05-04 18:07:00,
2013-05-04 14:12:00,54.5,54.5,29.98,SSE,156,6.6,8.5,100,0.20,,BKN190,0.31,VWS V14.01,2013-05-04 18:12:00,
2013-05-04 14:17:00,54.5,54.5,29.98,ESE,116,0.0,5.6,100,0.16,,BKN190,0.31,VWS V14.01,2013-05-04 18:17:00,
2013-05-04 14:22:00,54.5,54.5,29.98,SSE,166,5.2,6.6,100,0.16,,BKN190,0.31,VWS V14.01,2013-05-04 18:22:00,
2013-05-04 14:28:00,54.7,54.7,29.95,South,181,3.7,5.6,100,0.12,,BKN190,0.31,VWS V14.01,2013-05-04 18:28:00,
2013-05-04 14:33:00,54.9,54.9,29.95,SSW,203,3.7,7.5,100,0.12,,BKN190,0.31,VWS V14.01,2013-05-04 18:33:00,
2013-05-04 14:38:00,54.9,54.9,29.95,SSW,203,8.9,11.3,100,0.08,,OVC090,0.31,VWS V14.01,2013-05-04 18:38:00,
2013-05-04 14:43:00,54.7,54.7,29.98,South,189,0.0,0.0,100,0.08,,OVC090,0.31,VWS V14.01,2013-05-04 18:43:00,
2013-05-04 14:48:00,54.7,54.7,29.98,SE,138,6.6,8.5,100,0.08,,OVC090,0.35,VWS V14.01,2013-05-04 18:48:00,
2013-05-04 14:53:00,54.5,54.5,29.98,ESE,108,5.9,8.5,100,0.08,,OVC090,0.35,VWS V14.01,2013-05-04 18:53:00,
2013-05-04 14:58:00,54.3,54.3,29.98,ESE,122,3.7,5.6,100,0.08,,OVC090,0.35,VWS V14.01,2013-05-04 18:58:00,
2013-05-04 15:03:00,54.1,54.1,29.98,SSE,156,0.0,7.5,100,0.08,,OVC090,0.35,VWS V14.01,2013-05-04 19:03:00,
2013-05-04 15:08:00,54.0,54.0,29.98,ESE,122,0.0,0.0,100,0.08,,OVC090,0.35,VWS V14.01,2013-05-04 19:08:00,
2013-05-04 15:13:00,54.0,54.0,29.98,SE,128,5.9,10.3,100,0.12,,OVC090,0.43,VWS V14.01,2013-05-04 19:13:00,
2013-05-04 15:19:00,54.0,54.0,29.98,ESE,119,0.0,11.3,100,0.12,,OVC090,0.43,VWS V14.01,2013-05-04 19:19:00,
2013-05-04 15:24:00,54.0,54.0,29.98,South,172,8.9,11.3,100,0.12,,OVC090,0.43,VWS V14.01,2013-05-04 19:24:00,
2013-05-04 15:29:00,53.8,53.8,29.98,ESE,103,5.2,6.6,100,0.12,,OVC090,0.43,VWS V14.01,2013-05-04 19:29:00,
2013-05-04 15:34:00,53.8,53.8,29.98,South,179,0.0,0.0,100,0.12,,OVC090,0.43,VWS V14.01,2013-05-04 19:34:00,
2013-05-04 15:39:00,53.8,53.8,29.98,East,87,3.7,4.7,100,0.12,,OVC085,0.43,VWS V14.01,2013-05-04 19:39:00,
2013-05-04 15:44:00,53.6,53.6,29.98,SE,124,6.6,12.2,100,0.08,,OVC085,0.43,VWS V14.01,2013-05-04 19:44:00,
2013-05-04 15:49:00,53.8,53.8,29.98,SSW,210,0.0,0.0,100,0.12,,OVC085,0.47,VWS V14.01,2013-05-04 19:49:00,
2013-05-04 15:54:00,53.8,53.8,29.98,ESE,107,4.4,5.6,100,0.12,,OVC085,0.47,VWS V14.01,2013-05-04 19:54:00,
2013-05-04 15:59:00,53.6,53.6,29.98,ESE,111,4.4,8.5,100,0.12,,OVC085,0.47,VWS V14.01,2013-05-04 19:59:00,
2013-05-04 16:05:00,53.6,53.6,29.98,ESE,115,6.6,11.3,100,0.12,,OVC085,0.47,VWS V14.01,2013-05-04 20:05:00,
2013-05-04 16:10:00,53.6,53.6,29.98,SSE,166,0.0,5.6,100,0.12,,OVC085,0.47,VWS V14.01,2013-05-04 20:10:00,
2013-05-04 16:15:00,53.6,53.6,29.98,ESE,109,4.4,5.6,100,0.04,,OVC085,0.47,VWS V14.01,2013-05-04 20:15:00,
2013-05-04 16:20:00,53.6,53.6,29.98,SE,124,4.4,10.3,100,0.08,,OVC085,0.51,VWS V14.01,2013-05-04 20:20:00,
2013-05-04 16:25:00,53.6,53.6,29.98,SE,126,0.0,0.0,100,0.08,,OVC085,0.51,VWS V14.01,2013-05-04 20:25:00,
2013-05-04 16:30:00,53.4,53.4,29.98,South,176,0.0,4.7,100,0.08,,OVC085,0.51,VWS V14.01,2013-05-04 20:30:00,
2013-05-04 16:35:00,53.4,53.4,29.98,ESE,118,8.1,10.3,100,0.08,,OVC085,0.51,VWS V14.01,2013-05-04 20:35:00,
2013-05-04 16:40:00,53.4,53.4,29.95,SE,140,0.0,5.6,100,0.08,,-RA,0.51,VWS V14.01,2013-05-04 20:40:00,
2013-05-04 16:45:00,53.6,53.6,29.95,South,172,0.0,5.6,100,0.08,,-RA,0.51,VWS V14.01,2013-05-04 20:45:00,
2013-05-04 16:50:00,53.6,53.6,29.95,ESE,120,4.4,6.6,100,0.04,,-RA,0.51,VWS V14.01,2013-05-04 20:50:00,
2013-05-04 16:55:00,53.6,53.6,29.95,SE,130,0.0,6.6,100,0.04,,-RA,0.51,VWS V14.01,2013-05-04 20:55:00,
2013-05-04 17:00:00,53.8,53.8,29.95,East,96,0.0,0.0,100,0.04,,-RA,0.51,VWS V14.01,2013-05-04 21:00:00,
2013-05-04 17:05:00,53.8,53.8,29.95,SE,137,0.0,0.0,100,0.04,,-RA,0.51,VWS V14.01,2013-05-04 21:05:00,
2013-05-04 17:11:00,54.0,54.0,29.98,SE,136,0.0,0.0,100,0.04,,-RA,0.51,VWS V14.01,2013-05-04 21:11:00,
2013-05-04 17:16:00,54.0,54.0,29.98,SSW,201,0.0,0.0,100,0.04,,-RA,0.51,VWS V14.01,2013-05-04 21:16:00,
2013-05-04 17:21:00,54.1,54.1,29.98,SSW,204,0.0,4.7,100,0.00,,-RA,0.51,VWS V14.01,2013-05-04 21:21:00,
2013-05-04 17:26:00,54.1,54.1,29.98,SSW,194,4.4,5.6,100,0.00,,-RA,0.51,VWS V14.01,2013-05-04 21:26:00,
2013-05-04 17:31:00,54.0,54.0,29.98,SSE,154,0.0,8.5,100,0.00,,-RA,0.51,VWS V14.01,2013-05-04 21:31:00,
2013-05-04 17:36:00,53.8,53.8,29.98,SSW,212,4.4,5.6,100,0.00,,OVC060,0.51,VWS V14.01,2013-05-04 21:36:00,
2013-05-04 17:41:00,53.6,53.6,29.98,West,262,4.4,5.6,100,0.00,,OVC060,0.51,VWS V14.01,2013-05-04 21:41:00,
2013-05-04 17:46:00,53.6,53.6,29.98,SE,140,5.9,7.5,100,0.00,,OVC060,0.51,VWS V14.01,2013-05-04 21:46:00,
2013-05-04 17:51:00,53.4,53.4,29.98,South,175,8.1,10.3,100,0.00,,OVC060,0.51,VWS V14.01,2013-05-04 21:51:00,
2013-05-04 17:56:00,53.4,53.4,29.98,South,184,0.0,0.0,100,0.00,,OVC060,0.51,VWS V14.01,2013-05-04 21:56:00,
2013-05-04 18:01:00,53.6,53.6,29.98,WSW,252,0.0,6.6,100,0.00,,OVC060,0.51,VWS V14.01,2013-05-04 22:01:00,
2013-05-04 18:06:00,53.6,53.6,29.98,South,191,0.0,6.6,100,0.00,,OVC060,0.51,VWS V14.01,2013-05-04 22:06:00,
2013-05-04 18:11:00,53.6,53.6,29.98,South,176,6.6,8.5,100,0.04,,OVC060,0.55,VWS V14.01,2013-05-04 22:11:00,
2013-05-04 18:16:00,53.6,53.6,29.98,South,184,0.0,0.0,100,0.04,,OVC060,0.55,VWS V14.01,2013-05-04 22:16:00,
2013-05-04 18:21:00,53.6,53.6,29.98,South,190,0.0,0.0,100,0.04,,OVC060,0.55,VWS V14.01,2013-05-04 22:21:00,
2013-05-04 18:26:00,53.8,53.8,29.98,South,189,0.0,0.0,100,0.04,,OVC060,0.55,VWS V14.01,2013-05-04 22:26:00,
2013-05-04 18:31:00,53.8,53.8,29.98,SSW,192,0.0,6.6,100,0.04,,OVC060,0.55,VWS V14.01,2013-05-04 22:31:00,
2013-05-04 18:37:00,53.8,53.8,29.98,SSW,192,0.0,0.0,100,0.04,,OVC048,0.55,VWS V14.01,2013-05-04 22:37:00,
2013-05-04 18:42:00,53.8,53.8,29.98,SSW,192,0.0,0.0,100,0.04,,OVC048,0.55,VWS V14.01,2013-05-04 22:42:00,
2013-05-04 18:47:00,53.8,53.8,29.98,SSW,192,0.0,0.0,100,0.04,,OVC048,0.55,VWS V14.01,2013-05-04 22:47:00,
2013-05-04 18:52:00,53.6,53.6,29.98,SSW,193,0.0,0.0,100,0.04,,OVC048,0.55,VWS V14.01,2013-05-04 22:52:00,
2013-05-04 18:57:00,53.6,53.6,29.95,SSW,192,0.0,0.0,100,0.04,,OVC048,0.55,VWS V14.01,2013-05-04 22:57:00,
2013-05-04 19:02:00,53.6,53.6,29.95,SSW,192,0.0,0.0,100,0.04,,OVC048,0.55,VWS V14.01,2013-05-04 23:02:00,
2013-05-04 19:07:00,53.6,53.6,29.95,SSW,192,0.0,0.0,100,0.00,,OVC048,0.55,VWS V14.01,2013-05-04 23:07:00,
2013-05-04 19:12:00,53.8,53.8,29.95,SSW,192,0.0,0.0,100,0.00,,OVC048,0.55,VWS V14.01,2013-05-04 23:12:00,
2013-05-04 19:17:00,54.3,54.3,29.95,SSW,192,0.0,0.0,100,0.00,,OVC048,0.55,VWS V14.01,2013-05-04 23:17:00,
2013-05-04 19:22:00,54.3,54.3,29.95,SSW,192,0.0,0.0,100,0.00,,OVC048,0.55,VWS V14.01,2013-05-04 23:22:00,
2013-05-04 19:27:00,54.3,54.3,29.95,SSW,192,0.0,0.0,100,0.00,,OVC048,0.55,VWS V14.01,2013-05-04 23:27:00,
2013-05-04 19:32:00,54.0,54.0,29.95,SSW,192,0.0,0.0,100,0.00,,OVC048,0.55,VWS V14.01,2013-05-04 23:32:00,
2013-05-04 19:37:00,54.0,54.0,29.95,SSW,192,0.0,0.0,100,0.00,,OVC055,0.55,VWS V14.01,2013-05-04 23:37:00,
2013-05-04 19:42:00,53.8,53.8,29.95,SSW,192,0.0,0.0,100,0.00,,OVC055,0.55,VWS V14.01,2013-05-04 23:42:00,
2013-05-04 19:47:00,53.8,53.8,29.95,SSW,192,0.0,0.0,100,0.00,,OVC055,0.55,VWS V14.01,2013-05-04 23:47:00,
2013-05-04 19:52:00,53.6,53.6,29.95,SSW,194,0.0,0.0,100,0.00,,OVC055,0.55,VWS V14.01,2013-05-04 23:52:00,
2013-05-04 19:58:00,53.6,53.6,29.95,SSW,192,0.0,0.0,100,0.00,,OVC055,0.55,VWS V14.01,2013-05-04 23:58:00,
2013-05-04 20:03:00,53.6,53.6,29.95,SSW,192,0.0,0.0,100,0.00,,OVC055,0.55,VWS V14.01,2013-05-05 00:03:00,
2013-05-04 20:08:00,53.6,53.6,29.95,SSW,196,0.0,0.0,100,0.00,,OVC055,0.55,VWS V14.01,2013-05-05 00:08:00,
2013-05-04 20:13:00,53.6,53.6,29.98,SSW,192,0.0,0.0,100,0.00,,OVC055,0.55,VWS V14.01,2013-05-05 00:13:00,
2013-05-04 20:18:00,53.6,53.6,29.98,SSW,192,0.0,0.0,100,0.00,,BKN100,0.55,VWS V14.01,2013-05-05 00:18:00,
2013-05-04 20:23:00,53.6,53.6,29.98,SSW,193,0.0,0.0,100,0.00,,BKN100,0.55,VWS V14.01,2013-05-05 00:23:00,
2013-05-04 20:28:00,53.6,53.6,29.98,SSW,192,0.0,0.0,100,0.00,,BKN100,0.55,VWS V14.01,2013-05-05 00:28:00,
2013-05-04 20:33:00,53.6,53.6,29.98,SSW,192,0.0,0.0,100,0.04,,BKN100,0.59,VWS V14.01,2013-05-05 00:33:00,
2013-05-04 20:38:00,53.4,53.4,29.98,SSW,192,0.0,0.0,100,0.04,,BKN100,0.59,VWS V14.01,2013-05-05 00:38:00,
2013-05-04 20:43:00,53.4,53.4,29.98,SSW,192,0.0,0.0,100,0.04,,BKN100,0.59,VWS V14.01,2013-05-05 00:43:00,
2013-05-04 20:48:00,53.4,53.4,29.98,SSW,192,0.0,0.0,100,0.04,,BKN100,0.59,VWS V14.01,2013-05-05 00:48:00,
2013-05-04 20:53:00,53.4,53.4,29.98,SSW,193,0.0,0.0,100,0.04,,BKN100,0.59,VWS V14.01,2013-05-05 00:53:00,
2013-05-04 20:58:00,53.4,53.4,29.98,SSW,192,0.0,0.0,100,0.04,,BKN100,0.59,VWS V14.01,2013-05-05 00:58:00,
2013-05-04 21:03:00,53.4,53.4,29.98,SSW,192,0.0,0.0,100,0.08,,BKN100,0.63,VWS V14.01,2013-05-05 01:03:00,
2013-05-04 21:09:00,53.4,53.4,29.98,SSW,192,0.0,0.0,100,0.08,,BKN100,0.63,VWS V14.01,2013-05-05 01:09:00,
2013-05-04 21:14:00,53.4,53.4,29.98,SSW,192,0.0,0.0,100,0.08,,BKN100,0.63,VWS V14.01,2013-05-05 01:14:00,
2013-05-04 21:19:00,53.4,53.4,29.98,SSW,192,0.0,0.0,100,0.08,,BKN100,0.63,VWS V14.01,2013-05-05 01:19:00,
2013-05-04 21:24:00,53.4,53.4,29.98,SSE,166,0.0,0.0,100,0.08,,BKN100,0.63,VWS V14.01,2013-05-05 01:24:00,
2013-05-04 21:29:00,53.2,53.2,29.98,SSE,166,0.0,0.0,100,0.08,,BKN100,0.63,VWS V14.01,2013-05-05 01:29:00,
2013-05-04 21:34:00,53.1,53.1,29.98,SSE,166,0.0,0.0,100,0.08,,BKN100,0.67,VWS V14.01,2013-05-05 01:34:00,
2013-05-04 21:39:00,53.1,53.1,29.98,NE,56,0.0,0.0,100,0.08,,BKN220,0.67,VWS V14.01,2013-05-05 01:39:00,
2013-05-04 21:44:00,53.2,53.2,29.98,ENE,65,0.0,0.0,100,0.08,,BKN220,0.67,VWS V14.01,2013-05-05 01:44:00,
2013-05-04 21:49:00,53.2,53.2,29.98,ENE,65,0.0,0.0,100,0.08,,BKN220,0.67,VWS V14.01,2013-05-05 01:49:00,
2013-05-04 21:54:00,53.2,53.2,29.98,ENE,65,0.0,0.0,100,0.08,,BKN220,0.67,VWS V14.01,2013-05-05 01:54:00,
2013-05-04 21:59:00,53.2,53.2,29.98,ENE,65,0.0,0.0,100,0.08,,BKN220,0.67,VWS V14.01,2013-05-05 01:59:00,
2013-05-04 22:04:00,53.2,53.2,29.98,ENE,65,0.0,0.0,100,0.04,,BKN220,0.67,VWS V14.01,2013-05-05 02:04:00,
2013-05-04 22:10:00,53.4,53.4,29.98,ENE,65,0.0,0.0,100,0.04,,BKN220,0.67,VWS V14.01,2013-05-05 02:10:00,
2013-05-04 22:15:00,53.2,53.2,29.98,ENE,65,0.0,0.0,100,0.04,,BKN220,0.67,VWS V14.01,2013-05-05 02:15:00,
2013-05-04 22:20:00,53.2,53.2,29.98,ENE,65,0.0,0.0,100,0.08,,BKN220,0.71,VWS V14.01,2013-05-05 02:20:00,
2013-05-04 22:25:00,53.2,53.2,29.98,ENE,65,0.0,0.0,100,0.08,,BKN220,0.71,VWS V14.01,2013-05-05 02:25:00,
2013-05-04 22:30:00,53.2,53.2,29.98,ENE,65,0.0,0.0,100,0.08,,BKN220,0.71,VWS V14.01,2013-05-05 02:30:00,
2013-05-04 22:35:00,53.2,53.2,29.98,ENE,65,0.0,0.0,100,0.04,,BKN220,0.71,VWS V14.01,2013-05-05 02:35:00,
2013-05-04 22:40:00,53.2,53.2,29.98,ENE,65,0.0,0.0,100,0.04,,OVC180,0.71,VWS V14.01,2013-05-05 02:40:00,
2013-05-04 22:45:00,53.2,53.2,29.98,ENE,65,0.0,0.0,100,0.04,,OVC180,0.71,VWS V14.01,2013-05-05 02:45:00,
2013-05-04 22:50:00,53.2,53.2,29.98,NE,49,0.0,0.0,100,0.04,,OVC180,0.71,VWS V14.01,2013-05-05 02:50:00,
2013-05-04 22:55:00,53.1,53.1,29.98,NE,49,0.0,0.0,100,0.04,,OVC180,0.71,VWS V14.01,2013-05-05 02:55:00,
2013-05-04 23:00:00,53.1,53.1,29.98,NE,49,0.0,0.0,100,0.04,,OVC180,0.71,VWS V14.01,2013-05-05 03:00:00,
2013-05-04 23:05:00,53.1,53.1,29.98,NE,49,0.0,0.0,100,0.04,,OVC180,0.71,VWS V14.01,2013-05-05 03:05:00,
2013-05-04 23:10:00,53.1,53.1,29.98,NE,43,5.9,7.5,100,0.08,,OVC180,0.75,VWS V14.01,2013-05-05 03:10:00,
2013-05-04 23:15:00,53.1,53.1,29.98,NE,39,5.2,7.5,100,0.08,,OVC180,0.75,VWS V14.01,2013-05-05 03:15:00,
2013-05-04 23:21:00,53.1,53.1,29.98,NNE,31,8.1,11.3,100,0.04,,OVC180,0.75,VWS V14.01,2013-05-05 03:21:00,
2013-05-04 23:26:00,53.1,53.1,29.98,NE,39,8.1,10.3,100,0.04,,OVC180,0.75,VWS V14.01,2013-05-05 03:26:00,
2013-05-04 23:31:00,53.1,53.1,29.98,NE,38,3.7,5.6,100,0.04,,OVC180,0.75,VWS V14.01,2013-05-05 03:31:00,
2013-05-04 23:36:00,53.1,53.1,29.98,NE,46,0.0,0.0,100,0.04,,-RA,0.75,VWS V14.01,2013-05-05 03:36:00,
2013-05-04 23:41:00,53.1,53.1,29.98,NE,53,3.7,4.7,100,0.04,,-RA,0.75,VWS V14.01,2013-05-05 03:41:00,
2013-05-04 23:46:00,53.1,53.1,29.98,NNE,32,0.0,0.0,100,0.04,,-RA,0.75,VWS V14.01,2013-05-05 03:46:00,
2013-05-04 23:51:00,53.1,53.1,29.98,NNE,32,0.0,4.7,100,0.04,,-RA,0.75,VWS V14.01,2013-05-05 03:51:00,
2013-05-04 23:56:00,53.1,53.1,29.98,North,8,0.0,0.0,100,0.08,,-RA,0.79,VWS V14.01,2013-05-05 03:56:00,